Location: Bocchiglicro
(39.4167°N, 16.7500°E)
Time: 11:23:07
(UTC+00:00)

SL-8 Rocket - Pass Details

Date: 07 June 2020
Orbit: 956 x 991 km, 82.9° (Epoch: 01 July)

Event Time Altitude Azimuth Distance (km) Brightness Sun altitude
Exits shadow 01:26:50 18° 175° (S) 2,214 5.4 -18.0°
Maximum altitude 01:31:39 72° 94° (E) 1,030 4.2 -17.5°
Drops below altitude 10° 01:37:54 10° 11° (N) 2,734 7.3 -16.7°
Sets 01:40:24 0° 10° (N) 3,680 8.1 -16.4°
